Time,TemperatureF,DewpointF,PressureIn,WindDirection,WindDirectionDegrees,WindSpeedMPH,WindSpeedGustMPH,Humidity,HourlyPrecipIn,Conditions,Clouds,dailyrainin,SoftwareType,DateUTC
2013-03-31 00:10:00,33.5,26.0,30.08,WSW,243,0.0,0.0,75,0.00,,,0.00,weatherlink.com 1.10,2013-03-31 04:10:00,
2013-03-31 00:25:00,33.0,26.0,30.08,WSW,243,0.0,1.0,74,0.00,,,0.00,weatherlink.com 1.10,2013-03-31 04:25:00,
2013-03-31 00:40:00,32.6,24.0,30.09,WSW,243,0.0,0.0,72,0.00,,,0.00,weatherlink.com 1.10,2013-03-31 04:40:00,
2013-03-31 00:55:00,32.1,26.0,30.09,WSW,243,0.0,0.0,77,0.00,,,0.00,weatherlink.com 1.10,2013-03-31 04:55:00,
2013-03-31 01:10:00,31.7,26.0,30.09,SSW,193,0.0,1.0,78,0.00,,,0.00,weatherlink.com 1.10,2013-03-31 05:10:00,
2013-03-31 01:25:00,31.2,25.0,30.09,SSW,194,0.0,0.0,79,0.00,,,0.00,weatherlink.com 1.10,2013-03-31 05:25:00,
2013-03-31 01:40:00,30.7,25.0,30.09,SSW,193,0.0,1.0,80,0.00,,,0.00,weatherlink.com 1.10,2013-03-31 05:40:00,
2013-03-31 01:55:00,30.4,26.0,30.09,SSW,193,0.0,0.0,82,0.00,,,0.00,weatherlink.com 1.10,2013-03-31 05:55:00,
2013-03-31 02:11:00,29.9,25.0,30.09,SSW,193,0.0,0.0,82,0.00,,,0.00,weatherlink.com 1.10,2013-03-31 06:11:00,
2013-03-31 02:26:00,29.7,25.0,30.08,SSW,193,0.0,0.0,82,0.00,,,0.00,weatherlink.com 1.10,2013-03-31 06:26:00,
2013-03-31 02:41:00,29.4,25.0,30.08,SSW,193,0.0,0.0,83,0.00,,,0.00,weatherlink.com 1.10,2013-03-31 06:41:00,
2013-03-31 02:56:00,29.4,25.0,30.08,SSW,193,0.0,0.0,82,0.00,,,0.00,weatherlink.com 1.10,2013-03-31 06:56:00,
2013-03-31 03:11:00,29.2,25.0,30.08,SSW,193,0.0,1.0,84,0.00,,,0.00,weatherlink.com 1.10,2013-03-31 07:11:00,
2013-03-31 03:26:00,28.9,25.0,30.08,SSW,193,0.0,0.0,84,0.00,,,0.00,weatherlink.com 1.10,2013-03-31 07:26:00,
2013-03-31 03:41:00,28.5,25.0,30.08,SSW,193,0.0,0.0,85,0.00,,,0.00,weatherlink.com 1.10,2013-03-31 07:41:00,
2013-03-31 03:56:00,28.2,25.0,30.08,SSW,193,0.0,0.0,86,0.00,,,0.00,weatherlink.com 1.10,2013-03-31 07:56:00,
2013-03-31 04:11:00,28.3,25.0,30.08,SSW,193,0.0,0.0,86,0.00,,,0.00,weatherlink.com 1.10,2013-03-31 08:11:00,
2013-03-31 04:26:00,28.1,25.0,30.09,SSW,193,0.0,0.0,87,0.00,,,0.00,weatherlink.com 1.10,2013-03-31 08:26:00,
2013-03-31 05:11:00,27.5,24.0,30.09,SSW,193,0.0,0.0,88,0.00,,,0.00,weatherlink.com 1.10,2013-03-31 09:11:00,
2013-03-31 05:41:00,27.0,24.0,30.09,SSW,193,0.0,0.0,89,0.00,,,0.00,weatherlink.com 1.10,2013-03-31 09:41:00,
2013-03-31 06:11:00,26.7,24.0,30.09,SSW,193,0.0,0.0,89,0.00,,,0.00,weatherlink.com 1.10,2013-03-31 10:11:00,
2013-03-31 06:26:00,26.6,24.0,30.09,SSW,193,0.0,0.0,89,0.00,,,0.00,weatherlink.com 1.10,2013-03-31 10:26:00,
2013-03-31 06:41:00,26.9,24.0,30.09,SSW,193,0.0,1.0,90,0.00,,,0.00,weatherlink.com 1.10,2013-03-31 10:41:00,
2013-03-31 06:56:00,27.0,25.0,30.10,SSW,193,0.0,1.0,91,0.00,,,0.00,weatherlink.com 1.10,2013-03-31 10:56:00,
2013-03-31 07:11:00,27.5,25.0,30.10,SSW,194,0.0,0.0,91,0.00,,,0.00,weatherlink.com 1.10,2013-03-31 11:11:00,
2013-03-31 07:26:00,28.3,26.0,30.10,SSW,193,0.0,0.0,91,0.00,,,0.00,weatherlink.com 1.10,2013-03-31 11:26:00,
2013-03-31 07:41:00,29.6,27.0,30.10,SSW,193,0.0,0.0,90,0.00,,,0.00,weatherlink.com 1.10,2013-03-31 11:41:00,
2013-03-31 07:56:00,31.6,29.0,30.10,SSW,193,0.0,0.0,89,0.00,,,0.00,weatherlink.com 1.10,2013-03-31 11:56:00,
2013-03-31 08:11:00,33.9,30.0,30.09,SSW,193,0.0,1.0,84,0.00,,,0.00,weatherlink.com 1.10,2013-03-31 12:11:00,
2013-03-31 08:26:00,36.2,30.0,30.09,SSW,193,0.0,0.0,79,0.00,,,0.00,weatherlink.com 1.10,2013-03-31 12:26:00,
2013-03-31 08:56:00,41.9,29.0,30.08,East,98,1.0,2.0,61,0.00,,,0.00,weatherlink.com 1.10,2013-03-31 12:56:00,
2013-03-31 09:11:00,44.1,30.0,30.08,ESE,102,1.0,2.0,57,0.00,,,0.00,weatherlink.com 1.10,2013-03-31 13:11:00,
2013-03-31 09:41:00,47.7,28.0,30.08,SSW,210,1.0,2.0,46,0.00,,,0.00,weatherlink.com 1.10,2013-03-31 13:41:00,
2013-03-31 09:56:00,49.2,28.0,30.07,SW,222,0.0,3.0,44,0.00,,,0.00,weatherlink.com 1.10,2013-03-31 13:56:00,
2013-03-31 10:12:00,50.8,26.0,30.07,WSW,246,0.0,2.0,39,0.00,,,0.00,weatherlink.com 1.10,2013-03-31 14:12:00,
2013-03-31 10:42:00,53.7,26.0,30.06,West,262,0.0,5.0,35,0.00,,,0.00,weatherlink.com 1.10,2013-03-31 14:42:00,
2013-03-31 10:57:00,55.3,28.0,30.06,WSW,239,1.0,4.0,35,0.00,,,0.00,weatherlink.com 1.10,2013-03-31 14:57:00,
2013-03-31 11:12:00,56.0,26.0,30.06,East,86,4.0,5.0,32,0.00,,,0.00,weatherlink.com 1.10,2013-03-31 15:12:00,
2013-03-31 11:27:00,57.1,26.0,30.05,West,263,1.0,4.0,30,0.00,,,0.00,weatherlink.com 1.10,2013-03-31 15:27:00,
2013-03-31 11:42:00,57.8,25.0,30.05,West,276,2.0,5.0,28,0.00,,,0.00,weatherlink.com 1.10,2013-03-31 15:42:00,
2013-03-31 11:57:00,58.6,25.0,30.04,SSE,164,4.0,6.0,28,0.00,,,0.00,weatherlink.com 1.10,2013-03-31 15:57:00,
2013-03-31 12:12:00,59.1,27.0,30.03,SE,129,5.0,5.0,29,0.00,,,0.00,weatherlink.com 1.10,2013-03-31 16:12:00,
2013-03-31 12:27:00,59.6,29.0,30.02,WSW,258,1.0,3.0,31,0.00,,,0.00,weatherlink.com 1.10,2013-03-31 16:27:00,
2013-03-31 12:42:00,59.9,25.0,30.02,SW,216,0.0,4.0,26,0.00,,,0.00,weatherlink.com 1.10,2013-03-31 16:42:00,
2013-03-31 12:57:00,59.6,26.0,30.01,WSW,252,3.0,6.0,28,0.00,,,0.00,weatherlink.com 1.10,2013-03-31 16:57:00,
2013-03-31 13:12:00,59.9,27.0,30.00,WSW,256,1.0,7.0,28,0.00,,,0.00,weatherlink.com 1.10,2013-03-31 17:12:00,
2013-03-31 13:27:00,59.6,24.0,29.99,WSW,254,4.0,6.0,26,0.00,,,0.00,weatherlink.com 1.10,2013-03-31 17:27:00,
2013-03-31 13:42:00,59.7,25.0,29.99,WSW,239,2.0,5.0,26,0.00,,,0.00,weatherlink.com 1.10,2013-03-31 17:42:00,
2013-03-31 13:57:00,59.6,25.0,29.98,West,271,3.0,7.0,27,0.00,,,0.00,weatherlink.com 1.10,2013-03-31 17:57:00,
2013-03-31 14:12:00,59.8,26.0,29.97,SW,214,4.0,5.0,27,0.00,,,0.00,weatherlink.com 1.10,2013-03-31 18:12:00,
2013-03-31 14:27:00,59.3,26.0,29.97,WSW,240,4.0,8.0,28,0.00,,,0.00,weatherlink.com 1.10,2013-03-31 18:27:00,
2013-03-31 14:42:00,59.1,25.0,29.96,WSW,239,3.0,9.0,27,0.00,,,0.00,weatherlink.com 1.10,2013-03-31 18:42:00,
2013-03-31 14:57:00,58.3,26.0,29.96,WSW,246,2.0,6.0,29,0.00,,,0.00,weatherlink.com 1.10,2013-03-31 18:57:00,
2013-03-31 15:12:00,57.8,26.0,29.95,WSW,256,4.0,7.0,29,0.00,,,0.00,weatherlink.com 1.10,2013-03-31 19:12:00,
2013-03-31 15:27:00,57.4,27.0,29.95,West,259,1.0,7.0,31,0.00,,,0.00,weatherlink.com 1.10,2013-03-31 19:27:00,
2013-03-31 15:42:00,57.0,26.0,29.95,WSW,249,3.0,7.0,30,0.00,,,0.00,weatherlink.com 1.10,2013-03-31 19:42:00,
2013-03-31 15:57:00,56.2,26.0,29.94,SW,214,1.0,7.0,31,0.00,,,0.00,weatherlink.com 1.10,2013-03-31 19:57:00,
2013-03-31 16:12:00,56.6,26.0,29.94,SW,229,1.0,6.0,31,0.00,,,0.00,weatherlink.com 1.10,2013-03-31 20:12:00,
2013-03-31 16:27:00,55.8,25.0,29.94,ESE,108,2.0,6.0,30,0.00,,,0.00,weatherlink.com 1.10,2013-03-31 20:27:00,
2013-03-31 16:43:00,55.3,25.0,29.94,SW,222,1.0,7.0,31,0.00,,,0.00,weatherlink.com 1.10,2013-03-31 20:43:00,
2013-03-31 16:58:00,55.1,26.0,29.94,WNW,284,4.0,6.0,32,0.00,,,0.00,weatherlink.com 1.10,2013-03-31 20:58:00,
2013-03-31 17:13:00,54.5,27.0,29.93,WSW,257,3.0,5.0,35,0.00,,,0.00,weatherlink.com 1.10,2013-03-31 21:13:00,
2013-03-31 17:28:00,53.7,31.0,29.93,West,262,2.0,7.0,42,0.00,,,0.00,weatherlink.com 1.10,2013-03-31 21:28:00,
2013-03-31 17:43:00,53.1,33.0,29.93,WSW,240,2.0,6.0,46,0.00,,,0.00,weatherlink.com 1.10,2013-03-31 21:43:00,
2013-03-31 17:58:00,52.4,34.0,29.93,WNW,299,3.0,6.0,49,0.00,,,0.00,weatherlink.com 1.10,2013-03-31 21:58:00,
2013-03-31 18:13:00,52.0,34.0,29.93,SW,218,3.0,4.0,51,0.00,,,0.00,weatherlink.com 1.10,2013-03-31 22:13:00,
2013-03-31 18:28:00,51.5,35.0,29.93,SE,146,1.0,8.0,53,0.00,,,0.00,weatherlink.com 1.10,2013-03-31 22:28:00,
2013-03-31 18:43:00,51.2,35.0,29.93,WSW,245,0.0,6.0,55,0.00,,,0.00,weatherlink.com 1.10,2013-03-31 22:43:00,
2013-03-31 18:58:00,50.8,35.0,29.92,SE,138,0.0,5.0,56,0.00,,,0.00,weatherlink.com 1.10,2013-03-31 22:58:00,
2013-03-31 19:13:00,50.6,36.0,29.92,SSW,205,0.0,3.0,58,0.00,,,0.00,weatherlink.com 1.10,2013-03-31 23:13:00,
2013-03-31 19:43:00,49.7,37.0,29.91,WNW,283,1.0,2.0,63,0.00,,,0.00,weatherlink.com 1.10,2013-03-31 23:43:00,
2013-03-31 19:58:00,49.1,38.0,29.91,SW,235,0.0,4.0,67,0.00,,,0.00,weatherlink.com 1.10,2013-03-31 23:58:00,
2013-03-31 20:13:00,48.2,40.0,29.90,WSW,246,0.0,2.0,72,0.00,,,0.00,weatherlink.com 1.10,2013-04-01 00:13:00,
2013-03-31 20:28:00,47.6,39.0,29.89,SSW,208,0.0,3.0,73,0.00,,,0.00,weatherlink.com 1.10,2013-04-01 00:28:00,
2013-03-31 20:45:00,47.3,40.0,29.88,SW,214,0.0,1.0,75,0.00,,,0.00,weatherlink.com 1.10,2013-04-01 00:45:00,
2013-03-31 20:58:00,47.2,39.0,29.87,East,99,1.0,2.0,74,0.00,,,0.00,weatherlink.com 1.10,2013-04-01 00:58:00,
2013-03-31 21:13:00,47.2,39.0,29.86,SE,124,0.0,3.0,74,0.00,,,0.00,weatherlink.com 1.10,2013-04-01 01:13:00,
2013-03-31 21:28:00,47.2,39.0,29.85,ESE,117,1.0,2.0,73,0.00,,,0.00,weatherlink.com 1.10,2013-04-01 01:28:00,
2013-03-31 21:43:00,47.3,38.0,29.84,East,96,0.0,4.0,70,0.00,,,0.00,weatherlink.com 1.10,2013-04-01 01:43:00,
2013-03-31 21:58:00,47.5,37.0,29.82,ESE,103,2.0,4.0,68,0.00,,,0.00,weatherlink.com 1.10,2013-04-01 01:58:00,
2013-03-31 22:13:00,47.6,37.0,29.81,ESE,113,1.0,4.0,67,0.00,,,0.00,weatherlink.com 1.10,2013-04-01 02:13:00,
2013-03-31 22:28:00,47.3,38.0,29.80,SE,141,0.0,3.0,71,0.00,,,0.00,weatherlink.com 1.10,2013-04-01 02:28:00,
2013-03-31 22:43:00,45.8,39.0,29.79,SE,129,0.0,2.0,78,0.00,,,0.00,weatherlink.com 1.10,2013-04-01 02:43:00,
2013-03-31 22:58:00,45.2,40.0,29.77,ESE,122,3.0,3.0,81,0.00,,,0.00,weatherlink.com 1.10,2013-04-01 02:58:00,
2013-03-31 23:13:00,44.9,40.0,29.75,ESE,117,2.0,3.0,83,0.00,,,0.00,weatherlink.com 1.10,2013-04-01 03:13:00,
2013-03-31 23:28:00,44.8,41.0,29.74,SE,125,1.0,3.0,86,0.01,,,0.01,weatherlink.com 1.10,2013-04-01 03:28:00,
2013-03-31 23:43:00,44.5,42.0,29.72,East,96,2.0,3.0,90,0.01,,,0.01,weatherlink.com 1.10,2013-04-01 03:43:00,
2013-03-31 23:59:00,44.4,42.0,29.71,ESE,103,2.0,3.0,92,0.01,,,0.01,weatherlink.com 1.10,2013-04-01 03:59:00,